Terminal Aerodrome Forecast
Issued by NWS

Home | Current Version | Previous Version | Text Only | Print | Product List | Glossary On
Versions: 1 2 3 4 5 6 7 8 9 10 11 12 13 14 15 16 17 18 19 20 21 22 23 24 25 26 27 28 29 30 31 32 33 34 35 36 37 38 39 40 41 42 43 44 45 46 47 48 49 50
000
FTUS43 KLOT 261300 AAA
TAFGYY
TAF AMD
KGYY 261400Z 2614/2712 20008KT P6SM BKN035
     FM261900 25007KT P6SM SCT035 BKN120
     FM262100 07010KT P6SM BKN120
     FM270100 VRB06KT 6SM BR BKN080 PROB30 2701/2704 TSRA BKN040CB
     FM270500 24004KT 3SM BR FEW010 BKN100=

USA.gov is the U.S. government's official web portal to all federal, state and local government web resources and services.